Location: Azat
(46.0765°N, 1.7600°E)
Time: 16:08:57
(UTC+00:00)

SPOT 5 - Pass Details

Date: 09 April 2020
Orbit: 624 x 814 km, 98.3° (Epoch: 27 May)

Event Time Altitude Azimuth Distance (km) Brightness Sun altitude
Exits shadow 22:10:49 31° 302° (WNW) 1,109 4.2 -31.2°
Drops below altitude 10° 22:13:33 10° 332° (NNW) 2,006 6.1 -31.4°
Sets 22:15:52 0° 340° (NNW) 2,923 7.1 -31.6°
